Вернуться в каталог

STARLINK-30432

АктивенСвязьVLEO
NORAD 57864·PAYLOAD·🇺🇸 United States

Запущен Sep 16, 2023 с Cape Canaveral Space Force Station

Loading…

Ближайшие Пролёты (ближайшие 24 часа)

TLE

СвежийSource: CelesTrak SupGP

Эпоха: Sep 15, 2026, 02:58 UTC

1 57864C 23144A   26258.12409722  .00016143  00000+0  58459-3 0  2580
2 57864  43.0006 295.2373 0001445 263.2492 350.5749 15.27576626    19

Отслеживайте STARLINK-30432 в реальном времени с AllMySat

Download on the App Store